This is the latest recevied weather packets stored in our database for station/object DR0T. If no packets are shown the sender has not sent any weather packets the latest 10 day(s).
| Time | Temp. | Humidity | Pressure | Rain* | Wind** | Luminosity | Snow |
|---|---|---|---|---|---|---|---|
| 1777520847 | 3.33° C | 51% | 1026.9 hPa | 0 mm | - | - | - |
| 1777520554 | 3.33° C | 51% | 1026.9 hPa | 0 mm | - | - | - |
| 1777520245 | 3.33° C | 50% | 1026.8 hPa | 0 mm | - | - | - |
| 1777519944 | 3.33° C | 51% | 1026.8 hPa | 0 mm | - | - | - |
| 1777519651 | 3.33° C | 51% | 1026.9 hPa | 0 mm | - | - | - |
| 1777519342 | 3.89° C | 50% | 1026.8 hPa | 0 mm | - | - | - |
| 1777519040 | 3.89° C | 50% | 1026.8 hPa | 0 mm | - | - | - |
| 1777518739 | 3.33° C | 51% | 1026.8 hPa | 0 mm | - | - | - |
| 1777518437 | 3.89° C | 50% | 1026.8 hPa | 0 mm | - | - | - |
| 1777518140 | 3.89° C | 50% | 1026.8 hPa | 0 mm | - | - | - |
| 1777517856 | 3.89° C | 51% | 1026.8 hPa | 0 mm | - | - | - |
| 1777517553 | 3.89° C | 50% | 1026.7 hPa | 0 mm | - | - | - |
| 1777517251 | 3.89° C | 50% | 1026.9 hPa | 0 mm | - | - | - |
| 1777516951 | 3.89° C | 49% | 1027 hPa | 0 mm | - | - | - |
| 1777516649 | 4.44° C | 49% | 1027 hPa | 0 mm | - | - | - |
| 1777516348 | 4.44° C | 48% | 1026.9 hPa | 0 mm | - | - | - |
| 1777516049 | 4.44° C | 48% | 1026.9 hPa | 0 mm | - | - | - |
| 1777515745 | 4.44° C | 47% | 1027 hPa | 0 mm | - | - | - |
| 1777515448 | 4.44° C | 47% | 1026.9 hPa | 0 mm | - | - | - |
| 1777515143 | 5° C | 47% | 1026.9 hPa | 0 mm | - | - | - |
| 1777514841 | 4.44° C | 47% | 1026.9 hPa | 0 mm | - | - | - |
| 1777514540 | 4.44° C | 48% | 1026.8 hPa | 0 mm | - | - | - |
| 1777514239 | 5° C | 47% | 1026.8 hPa | 0 mm | - | - | - |
| 1777513937 | 5° C | 47% | 1026.7 hPa | 0 mm | - | - | - |
| 1777513643 | 5° C | 48% | 1026.6 hPa | 0 mm | - | - | - |
* Rain latest hour (hover to see other rain measurements)
** Current wind speed in m/s (hover to see current wind gust speed)